QPF
0.00 0.00 0.00 0.00 0.00 0.00 0.00 0.00 0.00 0.00 0.00 0.00 0.00 0.01 0.02 0.03 0.03 0.07 0.09 0.08 0.09 0.16 0.24 0.19 0.23 0.16 0.15 0.20 0.26 0.18 0.11 0.10 0.11 0.11 0.09 0.08 0.09 0.12 0.11 0.08 0.08 0.08 0.06 0.08
0.00 0.00 0.00 0.00 0.00 0.00 0.00 0.00 0.00 0.00 0.00 0.00 0.01 0.02 0.04 0.04 0.04 0.05 0.08 0.09 0.10 0.08 0.14 0.13 0.12 0.08 0.06 0.07 0.09 0.08 0.06 0.06 0.06 0.05 0.05 0.06 0.08 0.09 0.10 0.07 0.07 0.07 0.06 0.06
0.00 0.00 0.00 0.00 0.00 0.00 0.00 0.00 0.00 0.00 0.00 0.01 0.02 0.04 0.06 0.06 0.05 0.05 0.05 0.07 0.06 0.04 0.05 0.05 0.04 0.03 0.03 0.03 0.04 0.04 0.04 0.04 0.05 0.05 0.06 0.07 0.07 0.10 0.07 0.05 0.05 0.05 0.05 0.05
0.00 0.00 0.00 0.00 0.00 0.00 0.00 0.00 0.00 0.01 0.01 0.01 0.02 0.05 0.08 0.09 0.09 0.06 0.06 0.09 0.08 0.05 0.03 0.03 0.02 0.02 0.02 0.02 0.02 0.02 0.02 0.03 0.03 0.04 0.04 0.06 0.06 0.07 0.06 0.04 0.05 0.06 0.06 0.05
0.00 0.00 0.00 0.00 0.00 0.00 0.00 0.00 0.00 0.01 0.02 0.02 0.02 0.04 0.09 0.10 0.08 0.07 0.09 0.11 0.08 0.04 0.02 0.01 0.01 0.01 0.01 0.01 0.01 0.01 0.02 0.02 0.02 0.03 0.03 0.04 0.05 0.04 0.05 0.04 0.04 0.03 0.04 0.04
0.00 0.00 0.00 0.00 0.00 0.00 0.00 0.00 0.00 0.01 0.02 0.02 0.01 0.02 0.08 0.08 0.07 0.07 0.10 0.11 0.05 0.03 0.01 0.01 0.00 0.00 0.00 0.00 0.01 0.01 0.01 0.01 0.01 0.01 0.02 0.02 0.03 0.04 0.04 0.04 0.04 0.04 0.04 0.03
0.00 0.00 0.00 0.00 0.00 0.00 0.00 0.00 0.01 0.01 0.03 0.02 0.02 0.02 0.05 0.05 0.04 0.05 0.08 0.09 0.05 0.02 0.01 0.00 0.00 0.00 0.00 0.00 0.00 0.00 0.01 0.01 0.01 0.01 0.01 0.02 0.03 0.05 0.05 0.04 0.05 0.05 0.04 0.04
0.00 0.00 0.00 0.00 0.00 0.00 0.00 0.00 0.01 0.03 0.04 0.03 0.03 0.06 0.13 0.11 0.07 0.08 0.07 0.06 0.05 0.04 0.02 0.01 0.00 0.00 0.00 0.00 0.00 0.00 0.01 0.01 0.01 0.01 0.01 0.02 0.02 0.03 0.03 0.05 0.04 0.04 0.04 0.03
0.02 0.02 0.00 0.00 0.00 0.00 0.00 0.00 0.01 0.01 0.02 0.04 0.07 0.13 0.24 0.23 0.18 0.15 0.12 0.10 0.08 0.06 0.03 0.02 0.01 0.01 0.00 0.00 0.00 0.00 0.01 0.01 0.01 0.01 0.01 0.01 0.01 0.02 0.03 0.03 0.03 0.03 0.03 0.03
0.02 0.02 0.01 0.00 0.00 0.00 0.00 0.00 0.01 0.02 0.04 0.08 0.09 0.10 0.14 0.22 0.18 0.18 0.11 0.09 0.07 0.06 0.03 0.02 0.02 0.01 0.01 0.00 0.00 0.00 0.00 0.00 0.01 0.01 0.01 0.01 0.01 0.02 0.02 0.02 0.02 0.03 0.03 0.03
0.03 0.02 0.01 0.01 0.01 0.01 0.01 0.01 0.01 0.02 0.04 0.07 0.09 0.10 0.10 0.16 0.22 0.20 0.13 0.09 0.09 0.07 0.06 0.03 0.02 0.01 0.01 0.00 0.00 0.00 0.00 0.00 0.00 0.01 0.01 0.01 0.02 0.03 0.03 0.02 0.01 0.01 0.02 0.02
0.03 0.02 0.01 0.01 0.02 0.02 0.01 0.02 0.02 0.03 0.03 0.03 0.05 0.07 0.07 0.09 0.13 0.17 0.17 0.12 0.09 0.06 0.04 0.02 0.01 0.01 0.01 0.00 0.00 0.00 0.00 0.00 0.00 0.00 0.01 0.01 0.02 0.03 0.03 0.02 0.01 0.01 0.01 0.01
0.02 0.02 0.02 0.03 0.03 0.02 0.02 0.02 0.02 0.02 0.02 0.02 0.05 0.08 0.10 0.11 0.14 0.15 0.12 0.09 0.05 0.03 0.02 0.01 0.01 0.01 0.01 0.01 0.00 0.00 0.00 0.01 0.01 0.01 0.01 0.01 0.01 0.02 0.02 0.02 0.02 0.01 0.01 0.01
0.01 0.01 0.03 0.06 0.05 0.03 0.02 0.01 0.02 0.02 0.02 0.02 0.04 0.07 0.09 0.14 0.15 0.12 0.09 0.09 0.05 0.03 0.02 0.01 0.01 0.01 0.01 0.01 0.00 0.00 0.00 0.01 0.01 0.01 0.01 0.01 0.01 0.02 0.02 0.01 0.01 0.02 0.02 0.01
0.01 0.01 0.02 0.04 0.06 0.03 0.02 0.01 0.01 0.02 0.02 0.03 0.04 0.06 0.08 0.11 0.12 0.10 0.08 0.06 0.02 0.02 0.01 0.01 0.01 0.01 0.01 0.00 0.00 0.00 0.00 0.01 0.01 0.02 0.02 0.02 0.02 0.02 0.02 0.02 0.02 0.02 0.02 0.02
0.01 0.01 0.01 0.02 0.03 0.03 0.02 0.01 0.02 0.02 0.02 0.03 0.05 0.07 0.07 0.06 0.07 0.07 0.05 0.03 0.02 0.01 0.01 0.00 0.01 0.00 0.00 0.00 0.00 0.00 0.00 0.01 0.01 0.02 0.03 0.02 0.02 0.02 0.03 0.03 0.03 0.03 0.03 0.02
0.02 0.01 0.02 0.03 0.02 0.04 0.04 0.04 0.04 0.04 0.04 0.05 0.06 0.06 0.07 0.07 0.06 0.04 0.03 0.02 0.01 0.01 0.00 0.00 0.00 0.00 0.00 0.00 0.00 0.00 0.01 0.01 0.02 0.02 0.03 0.03 0.03 0.02 0.03 0.04 0.05 0.04 0.04 0.03
0.02 0.02 0.02 0.03 0.03 0.06 0.06 0.06 0.06 0.06 0.06 0.06 0.06 0.06 0.05 0.05 0.04 0.02 0.01 0.01 0.01 0.01 0.00 0.00 0.00 0.00 0.00 0.00 0.01 0.01 0.01 0.02 0.02 0.02 0.01 0.02 0.03 0.04 0.04 0.05 0.04 0.04 0.03 0.04
0.01 0.02 0.02 0.03 0.05 0.07 0.08 0.06 0.04 0.07 0.08 0.05 0.04 0.04 0.04 0.03 0.02 0.02 0.02 0.01 0.01 0.00 0.00 0.00 0.00 0.00 0.00 0.01 0.01 0.02 0.01 0.02 0.02 0.01 0.02 0.02 0.04 0.05 0.05 0.05 0.04 0.04 0.04 0.04
0.01 0.02 0.03 0.04 0.06 0.10 0.10 0.06 0.03 0.05 0.08 0.05 0.04 0.03 0.03 0.03 0.03 0.03 0.02 0.01 0.00 0.00 0.00 0.00 0.00 0.00 0.00 0.00 0.01 0.01 0.01 0.01 0.01 0.02 0.02 0.02 0.03 0.04 0.04 0.04 0.04 0.04 0.05 0.05
0.04 0.04 0.04 0.04 0.06 0.11 0.07 0.05 0.04 0.06 0.07 0.05 0.03 0.02 0.02 0.02 0.03 0.03 0.02 0.01 0.00 0.00 0.00 0.00 0.00 0.00 0.00 0.01 0.01 0.00 0.01 0.01 0.01 0.02 0.02 0.03 0.03 0.03 0.03 0.03 0.04 0.04 0.04 0.04
0.03 0.03 0.04 0.04 0.06 0.09 0.06 0.05 0.05 0.05 0.03 0.03 0.02 0.02 0.02 0.02 0.02 0.03 0.03 0.02 0.01 0.00 0.01 0.01 0.01 0.01 0.01 0.02 0.01 0.01 0.01 0.01 0.01 0.02 0.03 0.04 0.05 0.05 0.04 0.03 0.04 0.04 0.04 0.04
0.03 0.04 0.04 0.05 0.07 0.06 0.05 0.05 0.04 0.02 0.03 0.03 0.02 0.02 0.02 0.02 0.02 0.02 0.02 0.01 0.01 0.01 0.01 0.01 0.01 0.01 0.01 0.02 0.02 0.01 0.01 0.01 0.02 0.03 0.03 0.04 0.05 0.06 0.05 0.04 0.04 0.05 0.04 0.03
0.04 0.04 0.06 0.06 0.06 0.05 0.05 0.03 0.03 0.03 0.03 0.03 0.02 0.02 0.02 0.02 0.02 0.02 0.01 0.01 0.01 0.00 0.01 0.02 0.02 0.01 0.01 0.02 0.02 0.01 0.02 0.02 0.02 0.03 0.04 0.05 0.05 0.04 0.04 0.04 0.04 0.05 0.04 0.02
0.04 0.04 0.06 0.05 0.04 0.04 0.03 0.02 0.02 0.02 0.03 0.02 0.02 0.02 0.02 0.01 0.01 0.02 0.01 0.01 0.01 0.01 0.01 0.02 0.02 0.01 0.01 0.02 0.02 0.03 0.02 0.02 0.03 0.03 0.03 0.04 0.03 0.03 0.03 0.03 0.03 0.04 0.03 0.02
0.05 0.04 0.04 0.03 0.02 0.03 0.02 0.01 0.01 0.01 0.01 0.01 0.01 0.01 0.01 0.01 0.01 0.01 0.01 0.01 0.01 0.02 0.02 0.02 0.02 0.01 0.01 0.02 0.02 0.03 0.02 0.02 0.02 0.03 0.03 0.03 0.02 0.02 0.03 0.03 0.03 0.03 0.02 0.01
MSLP
1012.59 1013.29 1013.73 1013.90 1013.79 1013.49 1013.06 1012.60 1012.20 1011.92 1011.78 1011.81 1011.97 1012.24 1012.58 1012.96 1013.34 1013.70 1014.03 1014.32 1014.56 1014.76 1014.92 1015.04 1015.11 1015.15 1015.14 1015.08 1014.99 1014.86 1014.70 1014.52 1014.32 1014.13 1013.95 1013.81 1013.71 1013.67 1013.68 1013.74 1013.86 1014.01 1014.19 1014.39
1012.79 1013.27 1013.50 1013.50 1013.30 1012.98 1012.65 1012.36 1012.19 1012.16 1012.26 1012.47 1012.74 1013.03 1013.31 1013.56 1013.78 1013.97 1014.15 1014.33 1014.52 1014.72 1014.92 1015.10 1015.24 1015.33 1015.35 1015.30 1015.18 1015.02 1014.82 1014.60 1014.38 1014.18 1014.01 1013.87 1013.77 1013.71 1013.69 1013.71 1013.78 1013.88 1014.02 1014.19
1012.83 1013.07 1013.10 1012.94 1012.69 1012.43 1012.24 1012.19 1012.31 1012.57 1012.92 1013.32 1013.69 1013.98 1014.17 1014.26 1014.27 1014.25 1014.25 1014.31 1014.43 1014.63 1014.87 1015.13 1015.35 1015.51 1015.58 1015.55 1015.43 1015.23 1014.99 1014.74 1014.49 1014.27 1014.09 1013.96 1013.86 1013.81 1013.79 1013.80 1013.84 1013.92 1014.04 1014.18
1012.76 1012.78 1012.63 1012.38 1012.12 1011.97 1011.98 1012.21 1012.63 1013.20 1013.81 1014.38 1014.83 1015.09 1015.15 1015.05 1014.83 1014.58 1014.38 1014.29 1014.34 1014.52 1014.80 1015.13 1015.45 1015.69 1015.82 1015.82 1015.69 1015.47 1015.18 1014.88 1014.59 1014.35 1014.17 1014.04 1013.97 1013.95 1013.96 1013.99 1014.05 1014.14 1014.25 1014.38
1012.65 1012.50 1012.23 1011.94 1011.74 1011.73 1011.97 1012.48 1013.21 1014.05 1014.89 1015.60 1016.09 1016.29 1016.21 1015.89 1015.43 1014.95 1014.54 1014.30 1014.26 1014.42 1014.74 1015.15 1015.55 1015.87 1016.05 1016.08 1015.95 1015.69 1015.36 1015.01 1014.68 1014.42 1014.24 1014.14 1014.11 1014.14 1014.21 1014.30 1014.40 1014.51 1014.63 1014.76
1012.58 1012.32 1011.99 1011.72 1011.61 1011.77 1012.24 1013.01 1013.99 1015.06 1016.06 1016.86 1017.34 1017.45 1017.21 1016.69 1016.00 1015.30 1014.72 1014.34 1014.23 1014.38 1014.74 1015.20 1015.68 1016.07 1016.31 1016.35 1016.21 1015.93 1015.55 1015.15 1014.78 1014.50 1014.33 1014.27 1014.30 1014.40 1014.54 1014.71 1014.87 1015.02 1015.16 1015.27
1012.61 1012.30 1011.97 1011.75 1011.76 1012.08 1012.74 1013.70 1014.86 1016.07 1017.15 1017.97 1018.40 1018.40 1018.01 1017.30 1016.44 1015.58 1014.86 1014.40 1014.26 1014.41 1014.81 1015.34 1015.88 1016.33 1016.60 1016.67 1016.52 1016.20 1015.78 1015.34 1014.95 1014.66 1014.51 1014.48 1014.58 1014.75 1014.98 1015.22 1015.44 1015.62 1015.76 1015.84
1012.74 1012.45 1012.16 1012.02 1012.14 1012.58 1013.35 1014.42 1015.66 1016.90 1017.97 1018.73 1019.07 1018.96 1018.44 1017.61 1016.64 1015.69 1014.93 1014.45 1014.32 1014.51 1014.96 1015.55 1016.16 1016.66 1016.96 1017.04 1016.89 1016.55 1016.11 1015.65 1015.24 1014.95 1014.81 1014.82 1014.97 1015.21 1015.50 1015.79 1016.05 1016.24 1016.36 1016.39
1012.97 1012.73 1012.51 1012.45 1012.64 1013.14 1013.96 1015.02 1016.22 1017.38 1018.36 1019.01 1019.23 1019.02 1018.42 1017.54 1016.55 1015.61 1014.88 1014.46 1014.39 1014.66 1015.18 1015.84 1016.50 1017.04 1017.38 1017.47 1017.33 1016.99 1016.54 1016.07 1015.66 1015.38 1015.26 1015.30 1015.48 1015.76 1016.08 1016.39 1016.64 1016.81 1016.88 1016.84
1013.25 1013.08 1012.94 1012.95 1013.17 1013.66 1014.42 1015.38 1016.44 1017.44 1018.25 1018.74 1018.85 1018.56 1017.94 1017.08 1016.16 1015.33 1014.72 1014.42 1014.48 1014.85 1015.45 1016.18 1016.88 1017.46 1017.82 1017.93 1017.80 1017.48 1017.04 1016.59 1016.20 1015.94 1015.83 1015.89 1016.08 1016.36 1016.67 1016.95 1017.16 1017.27 1017.27 1017.14
1013.55 1013.45 1013.38 1013.42 1013.63 1014.05 1014.68 1015.46 1016.30 1017.07 1017.67 1017.99 1017.99 1017.67 1017.08 1016.34 1015.57 1014.92 1014.50 1014.38 1014.58 1015.06 1015.75 1016.52 1017.25 1017.84 1018.22 1018.35 1018.25 1017.96 1017.56 1017.15 1016.79 1016.56 1016.46 1016.51 1016.69 1016.93 1017.19 1017.41 1017.55 1017.58 1017.49 1017.28
1013.82 1013.79 1013.77 1013.81 1013.98 1014.29 1014.74 1015.30 1015.88 1016.40 1016.78 1016.95 1016.87 1016.55 1016.06 1015.48 1014.92 1014.50 1014.30 1014.37 1014.72 1015.30 1016.04 1016.83 1017.56 1018.15 1018.53 1018.67 1018.60 1018.36 1018.02 1017.66 1017.36 1017.15 1017.06 1017.10 1017.23 1017.42 1017.60 1017.74 1017.80 1017.75 1017.58 1017.30
1014.03 1014.07 1014.08 1014.12 1014.22 1014.41 1014.67 1014.99 1015.33 1015.61 1015.80 1015.84 1015.72 1015.45 1015.09 1014.71 1014.39 1014.21 1014.23 1014.48 1014.94 1015.59 1016.34 1017.10 1017.79 1018.34 1018.70 1018.84 1018.80 1018.62 1018.35 1018.06 1017.81 1017.64 1017.56 1017.58 1017.66 1017.78 1017.88 1017.94 1017.91 1017.79 1017.57 1017.27
1014.20 1014.28 1014.33 1014.36 1014.40 1014.46 1014.56 1014.68 1014.80 1014.90 1014.93 1014.89 1014.77 1014.59 1014.39 1014.22 1014.13 1014.17 1014.38 1014.76 1015.30 1015.94 1016.65 1017.34 1017.94 1018.41 1018.72 1018.86 1018.84 1018.71 1018.51 1018.29 1018.10 1017.97 1017.91 1017.90 1017.94 1018.00 1018.03 1018.01 1017.93 1017.77 1017.54 1017.25
1014.33 1014.45 1014.52 1014.55 1014.55 1014.53 1014.51 1014.48 1014.44 1014.40 1014.34 1014.27 1014.19 1014.12 1014.08 1014.11 1014.22 1014.44 1014.79 1015.24 1015.78 1016.38 1016.99 1017.56 1018.03 1018.40 1018.63 1018.74 1018.73 1018.65 1018.51 1018.37 1018.24 1018.16 1018.11 1018.09 1018.10 1018.10 1018.09 1018.03 1017.92 1017.76 1017.55 1017.31
1014.44 1014.59 1014.70 1014.74 1014.72 1014.66 1014.56 1014.44 1014.31 1014.20 1014.11 1014.05 1014.04 1014.09 1014.20 1014.40 1014.67 1015.02 1015.44 1015.91 1016.41 1016.90 1017.37 1017.78 1018.11 1018.34 1018.49 1018.55 1018.54 1018.49 1018.41 1018.34 1018.27 1018.22 1018.20 1018.19 1018.18 1018.16 1018.12 1018.05 1017.95 1017.82 1017.68 1017.52
1014.56 1014.74 1014.87 1014.93 1014.92 1014.85 1014.72 1014.57 1014.42 1014.29 1014.21 1014.21 1014.28 1014.44 1014.69 1015.01 1015.39 1015.82 1016.26 1016.70 1017.12 1017.48 1017.79 1018.03 1018.20 1018.30 1018.35 1018.36 1018.35 1018.32 1018.29 1018.26 1018.25 1018.25 1018.25 1018.25 1018.25 1018.23 1018.20 1018.15 1018.09 1018.02 1017.95 1017.89
1014.73 1014.92 1015.06 1015.14 1015.15 1015.09 1014.98 1014.83 1014.70 1014.59 1014.56 1014.62 1014.78 1015.04 1015.39 1015.81 1016.26 1016.72 1017.15 1017.54 1017.85 1018.09 1018.24 1018.33 1018.35 1018.34 1018.30 1018.26 1018.23 1018.22 1018.22 1018.24 1018.27 1018.31 1018.34 1018.37 1018.38 1018.38 1018.38 1018.38 1018.37 1018.38 1018.39 1018.42
1014.95 1015.13 1015.28 1015.37 1015.40 1015.36 1015.27 1015.16 1015.06 1015.00 1015.03 1015.16 1015.39 1015.73 1016.15 1016.62 1017.11 1017.58 1017.98 1018.31 1018.54 1018.66 1018.69 1018.66 1018.57 1018.47 1018.37 1018.29 1018.25 1018.24 1018.27 1018.32 1018.39 1018.46 1018.53 1018.58 1018.63 1018.67 1018.71 1018.76 1018.82 1018.89 1018.98 1019.09
1015.23 1015.39 1015.52 1015.61 1015.64 1015.61 1015.55 1015.47 1015.42 1015.41 1015.50 1015.68 1015.97 1016.36 1016.83 1017.34 1017.84 1018.30 1018.68 1018.95 1019.12 1019.17 1019.13 1019.01 1018.86 1018.70 1018.56 1018.46 1018.42 1018.42 1018.46 1018.54 1018.63 1018.73 1018.83 1018.92 1019.01 1019.10 1019.19 1019.30 1019.41 1019.55 1019.69 1019.85
1015.56 1015.67 1015.77 1015.83 1015.85 1015.83 1015.79 1015.74 1015.73 1015.77 1015.89 1016.12 1016.45 1016.87 1017.36 1017.88 1018.38 1018.83 1019.19 1019.44 1019.58 1019.60 1019.52 1019.38 1019.20 1019.02 1018.87 1018.77 1018.72 1018.73 1018.78 1018.87 1018.99 1019.11 1019.25 1019.38 1019.51 1019.65 1019.80 1019.96 1020.13 1020.31 1020.49 1020.66
1015.91 1015.96 1016.01 1016.03 1016.04 1016.02 1015.98 1015.96 1015.98 1016.05 1016.21 1016.47 1016.82 1017.25 1017.74 1018.26 1018.75 1019.19 1019.55 1019.79 1019.92 1019.95 1019.88 1019.74 1019.58 1019.41 1019.27 1019.18 1019.13 1019.14 1019.20 1019.30 1019.43 1019.58 1019.75 1019.92 1020.10 1020.30 1020.50 1020.71 1020.92 1021.13 1021.33 1021.51
1016.22 1016.22 1016.21 1016.20 1016.18 1016.15 1016.14 1016.14 1016.19 1016.29 1016.48 1016.75 1017.11 1017.54 1018.03 1018.53 1019.01 1019.44 1019.79 1020.05 1020.19 1020.24 1020.21 1020.11 1019.98 1019.84 1019.72 1019.64 1019.60 1019.61 1019.68 1019.79 1019.93 1020.11 1020.31 1020.52 1020.76 1021.00 1021.26 1021.51 1021.76 1021.99 1022.19 1022.35
1016.45 1016.39 1016.34 1016.30 1016.27 1016.26 1016.26 1016.30 1016.38 1016.53 1016.74 1017.03 1017.40 1017.82 1018.28 1018.76 1019.23 1019.65 1020.00 1020.26 1020.43 1020.52 1020.53 1020.47 1020.38 1020.28 1020.19 1020.12 1020.09 1020.11 1020.18 1020.30 1020.46 1020.66 1020.89 1021.15 1021.43 1021.73 1022.03 1022.33 1022.60 1022.84 1023.04 1023.18
1016.53 1016.43 1016.36 1016.32 1016.30 1016.31 1016.36 1016.45 1016.59 1016.78 1017.03 1017.34 1017.71 1018.13 1018.57 1019.03 1019.47 1019.87 1020.21 1020.48 1020.68 1020.80 1020.84 1020.83 1020.78 1020.72 1020.65 1020.60 1020.58 1020.61 1020.68 1020.81 1020.98 1021.20 1021.47 1021.77 1022.11 1022.45 1022.79 1023.12 1023.41 1023.66 1023.84 1023.97
1016.44 1016.32 1016.25 1016.22 1016.24 1016.30 1016.42 1016.58 1016.78 1017.04 1017.34 1017.69 1018.07 1018.48 1018.91 1019.34 1019.75 1020.13 1020.46 1020.73 1020.94 1021.08 1021.16 1021.18 1021.17 1021.14 1021.10 1021.06 1021.06 1021.09 1021.17 1021.30 1021.49 1021.74 1022.04 1022.38 1022.74 1023.13 1023.50 1023.85 1024.15 1024.39 1024.57 1024.67
Thickness
5707 5692 5685 5694 5701 5701 5703 5702 5701 5717 5737 5730 5722 5718 5719 5722 5721 5717 5712 5711 5709 5707 5704 5704 5706 5706 5705 5702 5700 5698 5703 5705 5706 5706 5704 5704 5704 5704 5704 5705 5705 5705 5705 5705
5686 5684 5701 5709 5711 5709 5705 5699 5703 5717 5735 5729 5717 5711 5715 5718 5716 5715 5711 5708 5705 5702 5700 5698 5699 5699 5697 5696 5695 5695 5697 5698 5700 5700 5700 5701 5700 5698 5698 5698 5698 5698 5698 5699
5681 5695 5713 5710 5707 5704 5705 5702 5706 5711 5723 5725 5715 5697 5699 5706 5709 5708 5707 5706 5703 5700 5697 5694 5692 5690 5689 5688 5688 5689 5690 5692 5693 5695 5695 5693 5691 5691 5689 5689 5690 5692 5693 5693
5689 5706 5711 5707 5707 5709 5697 5716 5718 5716 5703 5692 5702 5674 5684 5692 5694 5696 5696 5697 5696 5694 5691 5689 5687 5684 5683 5682 5682 5682 5683 5683 5684 5686 5685 5683 5681 5679 5680 5681 5682 5684 5685 5686
5691 5706 5707 5704 5711 5716 5711 5721 5717 5712 5699 5687 5688 5674 5673 5685 5682 5686 5689 5690 5688 5687 5685 5683 5681 5679 5678 5676 5675 5674 5674 5674 5675 5676 5676 5675 5674 5673 5674 5675 5675 5675 5676 5677
5699 5714 5715 5715 5724 5725 5722 5713 5705 5693 5681 5665 5675 5670 5666 5675 5682 5685 5686 5685 5683 5681 5678 5675 5674 5672 5670 5668 5667 5666 5666 5665 5666 5667 5667 5666 5666 5666 5666 5666 5666 5666 5667 5668
5690 5704 5715 5722 5712 5716 5711 5684 5663 5660 5651 5655 5673 5670 5666 5681 5688 5689 5685 5681 5678 5676 5672 5667 5664 5662 5660 5659 5658 5657 5656 5656 5657 5657 5657 5657 5657 5657 5656 5656 5657 5657 5657 5658
5671 5677 5703 5714 5709 5702 5701 5685 5658 5648 5646 5650 5664 5660 5668 5682 5689 5689 5684 5678 5673 5668 5664 5660 5657 5654 5652 5650 5649 5648 5647 5646 5647 5647 5646 5647 5647 5646 5646 5647 5647 5647 5648 5648
5669 5675 5705 5716 5720 5711 5697 5684 5681 5660 5654 5645 5651 5660 5671 5678 5679 5677 5673 5669 5666 5661 5657 5653 5650 5646 5643 5642 5640 5639 5638 5637 5637 5637 5637 5637 5637 5637 5637 5637 5637 5638 5638 5639
5681 5675 5693 5710 5715 5711 5703 5692 5670 5657 5642 5638 5646 5652 5655 5665 5666 5667 5665 5660 5657 5653 5649 5645 5642 5638 5635 5632 5630 5629 5628 5627 5627 5626 5626 5627 5627 5627 5627 5627 5627 5628 5629 5630
5682 5671 5680 5692 5689 5687 5690 5686 5673 5657 5653 5639 5633 5646 5671 5668 5667 5664 5661 5656 5653 5647 5642 5637 5632 5629 5625 5622 5620 5619 5618 5617 5616 5616 5616 5616 5616 5616 5617 5617 5617 5618 5619 5620
5678 5666 5662 5677 5694 5700 5692 5684 5673 5656 5651 5649 5639 5647 5674 5670 5667 5662 5657 5650 5645 5639 5633 5627 5623 5618 5614 5611 5609 5608 5607 5605 5604 5604 5604 5603 5603 5604 5604 5605 5606 5607 5608 5610
5677 5662 5651 5658 5670 5684 5682 5684 5679 5665 5651 5644 5638 5648 5668 5665 5661 5656 5650 5643 5636 5629 5622 5617 5612 5607 5603 5600 5598 5597 5595 5594 5592 5591 5591 5590 5591 5591 5592 5593 5594 5596 5597 5599
5681 5659 5651 5647 5655 5669 5672 5679 5679 5666 5647 5645 5649 5653 5655 5655 5652 5647 5642 5636 5629 5621 5614 5608 5602 5597 5593 5590 5588 5585 5583 5582 5581 5580 5579 5578 5578 5579 5580 5581 5582 5584 5586 5587
5670 5657 5662 5666 5674 5676 5675 5677 5677 5670 5663 5653 5655 5655 5655 5654 5649 5642 5635 5628 5621 5613 5607 5601 5594 5589 5584 5581 5578 5575 5573 5571 5570 5569 5568 5567 5567 5568 5568 5569 5571 5572 5574 5576
5657 5653 5658 5661 5673 5674 5668 5672 5674 5671 5668 5661 5657 5651 5655 5650 5643 5634 5627 5621 5612 5605 5600 5594 5588 5582 5577 5572 5569 5566 5563 5561 5560 5559 5558 5557 5557 5558 5558 5559 5560 5562 5563 5565
5649 5646 5644 5644 5662 5664 5651 5657 5662 5661 5661 5660 5651 5649 5647 5639 5633 5626 5619 5613 5605 5598 5592 5585 5578 5572 5567 5562 5559 5556 5554 5552 5551 5550 5549 5548 5548 5548 5548 5549 5550 5551 5552 5555
5646 5641 5634 5636 5645 5635 5647 5662 5662 5657 5655 5657 5652 5647 5641 5634 5625 5619 5613 5605 5596 5589 5582 5575 5568 5562 5556 5553 5550 5548 5546 5544 5543 5541 5540 5540 5540 5539 5539 5539 5540 5541 5543 5545
5650 5642 5634 5629 5631 5636 5649 5657 5655 5649 5643 5648 5643 5637 5630 5624 5614 5605 5602 5596 5588 5580 5572 5564 5558 5553 5548 5545 5542 5540 5537 5536 5534 5533 5532 5532 5532 5531 5531 5531 5531 5532 5534 5536
5648 5642 5633 5630 5629 5626 5639 5656 5661 5650 5634 5642 5639 5630 5623 5617 5603 5596 5591 5585 5577 5569 5562 5556 5550 5545 5540 5537 5534 5532 5529 5528 5527 5526 5525 5525 5526 5525 5524 5524 5525 5526 5527 5529
5633 5632 5629 5626 5625 5631 5646 5655 5656 5633 5630 5637 5633 5625 5618 5611 5603 5593 5584 5575 5567 5560 5554 5548 5542 5537 5533 5530 5528 5525 5523 5521 5521 5520 5520 5520 5520 5519 5519 5519 5520 5521 5522 5523
5629 5626 5624 5623 5620 5626 5647 5648 5639 5633 5636 5633 5626 5618 5610 5602 5593 5583 5575 5566 5559 5551 5546 5540 5534 5530 5527 5524 5522 5519 5516 5516 5516 5515 5515 5514 5515 5516 5516 5515 5515 5516 5517 5517
5631 5631 5627 5626 5624 5635 5643 5642 5641 5638 5631 5626 5618 5610 5603 5593 5584 5576 5567 5559 5552 5546 5539 5534 5529 5525 5521 5519 5517 5514 5512 5512 5512 5511 5510 5510 5510 5511 5511 5512 5512 5512 5512 5513
5634 5639 5632 5627 5631 5635 5638 5638 5637 5634 5628 5621 5613 5605 5597 5587 5578 5569 5561 5553 5547 5540 5535 5530 5525 5521 5517 5515 5514 5512 5511 5510 5509 5507 5507 5506 5506 5506 5507 5508 5508 5508 5508 5509
5633 5635 5629 5626 5629 5631 5632 5632 5631 5627 5622 5615 5606 5600 5591 5582 5573 5564 5556 5550 5543 5537 5531 5527 5522 5519 5516 5514 5512 5510 5509 5508 5506 5505 5504 5504 5503 5503 5503 5503 5503 5505 5505 5507
5634 5632 5628 5625 5631 5626 5625 5629 5627 5621 5615 5608 5601 5592 5585 5578 5569 5561 5553 5547 5541 5535 5530 5525 5521 5518 5515 5513 5511 5510 5508 5507 5505 5503 5503 5502 5501 5501 5501 5501 5501 5503 5505 5507